Location: Borowce
(50.8255°N, 19.6209°E)
Time: 08:33:46
(UTC+00:00)

Cosmos 1725 Rocket - Pass Details

Date: 19 May 2025
Orbit: 961 x 989 km, 82.9° (Epoch: 17 June)

Event Time Altitude Azimuth Distance (km) Brightness Sun altitude
Rises 23:05:45 0° 351° (N) 3,663 8.4 -18.9°
Reaches altitude 10° 23:08:16 10° 354° (N) 2,715 7.5 -18.9°
Maximum altitude 23:14:29 70° 78° (ENE) 1,028 4.1 -18.7°
Enters shadow 23:18:17 25° 157° (SSE) 1,857 5.0 -18.6°
